[[{"header":{"parameterUnit":"m.s-1","parameterCategory":1,"la1":30.2991,"la2":30.254,"lo1":-89.0895,"lo2":-89.0444,"dy":0.0017,"dx":0.0017,"nx":28,"ny":28,"refTime":"2025-08-25T21:00:00:Z","depth":0,"parameterNumber":2,"parameterNumberName":"U-component_of_WINDS"},"data":[0,0,0,0,0,0,0,0,0,0,0,0,0,0,0,0,0,0,0,0,0,0,0,0,0,0,0,0,0,0,0,0,0,0,0,0,0,0,0,0,0,0,0,0,0,0,0,0,0,0,0,0,0,0,0,0,0,0,0.4847,0.4848,0,0.4952,0.4953,0.4954,0.5013,0.5014,0.5014,0.5014,0.5121,0.5123,0.5126,0,0,0,0,0,0,0,0,0,0,0,0,0,0.4697,0.47,0.4847,0.4848,0.485,0.4952,0.4953,0.4954,0.5013,0.5014,0.5014,0.5014,0.512,0.5123,0.5126,0,0,0,0,0,0,0,0,0,0,0,0,0,0.4778,0.4701,0.4847,0.4891,0.4896,0.4951,0.4953,0.4955,0.5013,0.5014,0.5014,0.5014,0.5119,0.5122,0.5126,0.5145,0,0,0.5139,0.514,0,0,0,0,0,0,0,0,0.4774,0.4784,0.4883,0.4888,0.4894,0.497,0.4939,0.5018,0.5013,0.4969,0.5014,0.5014,0.507,0.5078,0.5097,0.515,0.5154,0.5139,0.5141,0.5143,0.5144,0,0,0,0,0,0,0,0.4768,0.4779,0.4888,0.4885,0.4891,0.4906,0.4918,0.4955,0.5016,0.4973,0.4977,0.4989,0.5073,0.5093,0.51,0.5156,0.5139,0.5142,0.5145,0.5146,0.5229,0.5229,0,0,0,0,0,0,0.4755,0.4774,0.4885,0.4892,0.4833,0.4908,0.4922,0.4945,0.5016,0.5027,0.4989,0.4991,0.5086,0.5095,0.5104,0.513,0.5143,0.5147,0.5149,0.5229,0.5229,0.5229,0,0,0,0,0,0,0.4752,0.4765,0.4881,0.4834,0.485,0.4911,0.4937,0.4947,0.4967,0.5028,0.5039,0.4998,0.5087,0.5098,0.5134,0.5135,0.5148,0.5152,0.523,0.5229,0.5229,0.5183,0,0,0,0,0,0,0.4747,0.4763,0.4771,0.4834,0.4852,0.4909,0.4937,0.4949,0.4974,0.4979,0.504,0.505,0.5088,0.5128,0.5138,0.514,0.5155,0.523,0.5229,0.5229,0.5184,0.5181,0.5178,0,0,0,0,0,0.4742,0.4753,0.4771,0.4784,0.4863,0.4909,0.492,0.4963,0.4974,0.4982,0.5021,0.5048,0.5133,0.5131,0.5143,0.5147,0.523,0.523,0.5229,0.5186,0.5182,0.5178,0,0,0,0,0,0,0.4688,0.4762,0.4783,0.4815,0.4855,0.4919,0.4931,0.4957,0.4995,0.4998,0.505,0.5063,0.5094,0.5124,0.5121,0.5168,0.5184,0.5186,0.5147,0.5144,0.5141,0.5133,0.5158,0,0,0,0,0,0.468,0.4711,0.4775,0.4797,0.4816,0.487,0.4892,0.4922,0.4965,0.4983,0.5025,0.5066,0.5102,0.5125,0.5161,0.5189,0.5203,0.5197,0.5194,0.5191,0.5192,0.5209,0.5207,0.5228,0.5228,0.5228,0,0,0.4664,0.4708,0.4725,0.4787,0.4822,0.4853,0.4884,0.4915,0.4939,0.4988,0.5024,0.5056,0.5106,0.5138,0.5154,0.5164,0.519,0.5191,0.5188,0.519,0.5208,0.5206,0.5205,0.5227,0.5227,0.5227,0,0,0.465,0.4686,0.4709,0.4744,0.4796,0.4832,0.4837,0.4897,0.4921,0.4958,0.4995,0.5024,0.5085,0.5119,0.5144,0.5143,0.5169,0.5153,0.5136,0.5152,0.515,0.5149,0.5149,0.5148,0.5154,0.5154,0.5154,0,0.4622,0.4671,0.4718,0.4747,0.4774,0.4819,0.4843,0.4874,0.4935,0.4952,0.4962,0.504,0.5077,0.5117,0.5117,0.5136,0.5144,0.5147,0.5147,0.5146,0.5146,0.5146,0.5145,0.5152,0.5152,0.5152,0.5153,0,0.4635,0.4668,0.468,0.4739,0.4767,0.4793,0.4843,0.4866,0.4893,0.4928,0.4965,0.5011,0.5058,0.507,0.5097,0.5114,0.5118,0.5137,0.5154,0.5141,0.5142,0.5142,0.5149,0.5149,0.515,0.5151,0,0,0.459,0.4674,0.4678,0.4705,0.4766,0.4793,0.4821,0.4867,0.4885,0.4926,0.4951,0.5002,0.5019,0.5048,0.5079,0.5093,0.509,0.511,0.5112,0.5105,0.5111,0.5097,0.5096,0.5107,0.5108,0.5108,0.5107,0,0.4585,0.4638,0.4681,0.4718,0.4749,0.4793,0.4818,0.4858,0.4891,0.4922,0.4958,0.4993,0.5014,0.5032,0.5047,0.5086,0.5091,0.5087,0.5131,0.5132,0.5117,0.5097,0.5081,0.5078,0.5108,0.5108,0.5108,0,0.4586,0.4625,0.4665,0.4724,0.4738,0.476,0.4805,0.4835,0.4881,0.4904,0.4936,0.4969,0.5,0.5015,0.5059,0.5055,0.5076,0.5098,0.5099,0.5104,0.5119,0.5101,0.5079,0.5078,0.5109,0.5109,0.5109,0,0.4548,0.4611,0.4644,0.4666,0.4735,0.4749,0.4778,0.4825,0.485,0.489,0.4906,0.4949,0.4972,0.5005,0.5048,0.5054,0.5088,0.5106,0.5108,0.5106,0.5112,0.5111,0.5092,0.5126,0.5126,0.5126,0.5126,0,0.4538,0.456,0.4628,0.4648,0.4675,0.4724,0.4749,0.4782,0.4823,0.485,0.4891,0.4915,0.4971,0.5002,0.5036,0.5068,0.5078,0.5097,0.5106,0.5094,0.5091,0.5107,0.5109,0.5126,0.5126,0.5126,0.5126,0,0.45,0.4546,0.4585,0.4647,0.4663,0.468,0.4733,0.4754,0.479,0.4823,0.4834,0.4889,0.4928,0.4975,0.5028,0.5051,0.5079,0.5093,0.5064,0.5069,0.5068,0.5067,0.5058,0.506,0.5092,0.5092,0.5091,0,0.449,0.4509,0.4573,0.4594,0.4622,0.4656,0.4682,0.4731,0.4756,0.481,0.4824,0.4866,0.4902,0.4962,0.5007,0.5048,0.5063,0.5057,0.5069,0.5056,0.5062,0.506,0.5063,0.5053,0.5053,0.5052,0.5052,0,0.4467,0.4489,0.4525,0.4569,0.4598,0.4635,0.4673,0.4688,0.4745,0.4771,0.4811,0.4839,0.4894,0.4935,0.4982,0.5012,0.5041,0.5048,0.505,0.5037,0.502,0.5029,0.5054,0.5047,0.5048,0.5048,0.5048,0.5049,0.4443,0.4462,0.451,0.4549,0.4583,0.4618,0.464,0.4679,0.4713,0.4762,0.4789,0.4828,0.4874,0.4941,0.497,0.5001,0.5012,0.5015,0.5016,0.5016,0.5013,0.5015,0.501,0.501,0.5011,0.5011,0.5011,0,0.4423,0.4456,0.4491,0.4543,0.4573,0.4598,0.4642,0.4666,0.47,0.4741,0.4776,0.4822,0.4862,0.491,0.4953,0.4969,0.4983,0.4979,0.4978,0.4984,0.5001,0.4994,0.4966,0.4966,0.4966,0.4966,0.4966,0.4966,0.4415,0.4448,0.4476,0.4526,0.4559,0.4598,0.4621,0.4654,0.4686,0.4736,0.477,0.4801,0.4845,0.4892,0.493,0.4943,0.4957,0.4948,0.4965,0.4979,0.4983,0.4987,0.4981,0.495,0.495,0.4946,0.4946,0.4946]},{"header":{"parameterUnit":"m.s-1","parameterCategory":1,"la1":30.2991,"la2":30.254,"lo1":-89.0895,"lo2":-89.0444,"dy":0.0017,"dx":0.0017,"nx":28,"ny":28,"refTime":"2025-08-25T21:00:00:Z","depth":0,"parameterNumber":3,"parameterNumberName":"V-component_of_WINDS"},"data":[0,0,0,0,0,0,0,0,0,0,0,0,0,0,0,0,0,0,0,0,0,0,0,0,0,0,0,0,0,0,0,0,0,0,0,0,0,0,0,0,0,0,0,0,0,0,0,0,0,0,0,0,0,0,0,0,0,0,0.7889,0.7888,0,0.7852,0.7851,0.7851,0.7811,0.781,0.781,0.7809,0.7771,0.777,0.777,0,0,0,0,0,0,0,0,0,0,0,0,0,0.7924,0.7924,0.7889,0.7888,0.7888,0.7852,0.7851,0.7851,0.7811,0.781,0.7809,0.7809,0.7771,0.777,0.777,0,0,0,0,0,0,0,0,0,0,0,0,0,0.79,0.7924,0.7889,0.7864,0.7861,0.7852,0.7851,0.7851,0.7811,0.781,0.7809,0.7808,0.7771,0.777,0.7769,0.7782,0,0,0.7767,0.7767,0,0,0,0,0,0,0,0,0.7902,0.7899,0.7868,0.7865,0.7862,0.7835,0.785,0.7828,0.7811,0.783,0.7809,0.7808,0.7793,0.779,0.7785,0.778,0.7779,0.7767,0.7767,0.7766,0.7766,0,0,0,0,0,0,0,0.7903,0.79,0.7874,0.7867,0.7864,0.7854,0.7849,0.7845,0.7817,0.7828,0.7825,0.7821,0.7791,0.7786,0.7784,0.7778,0.7767,0.7766,0.7766,0.7766,0.7782,0.7783,0,0,0,0,0,0,0.7909,0.7902,0.7875,0.7873,0.788,0.7854,0.7849,0.7845,0.7817,0.7811,0.7822,0.782,0.7787,0.7785,0.7782,0.7796,0.7766,0.7766,0.7765,0.7781,0.7782,0.7783,0,0,0,0,0,0,0.791,0.7907,0.7877,0.7887,0.7882,0.7854,0.785,0.7844,0.7839,0.7812,0.7807,0.7822,0.7787,0.7783,0.7783,0.7794,0.7765,0.7765,0.778,0.7782,0.7783,0.7823,0,0,0,0,0,0,0.7911,0.7908,0.7912,0.7887,0.7882,0.7878,0.785,0.7844,0.7838,0.7834,0.7811,0.7806,0.7786,0.7784,0.7782,0.7792,0.7764,0.7779,0.7781,0.7783,0.782,0.7825,0.783,0,0,0,0,0,0.7912,0.7925,0.7913,0.791,0.7887,0.7879,0.7876,0.7853,0.7839,0.7844,0.7826,0.7807,0.7793,0.7784,0.7782,0.7792,0.7778,0.7781,0.7782,0.7818,0.7824,0.7829,0,0,0,0,0,0,0.7952,0.7921,0.7907,0.7912,0.7899,0.7872,0.7877,0.786,0.785,0.7847,0.7818,0.7813,0.7816,0.7803,0.7795,0.7803,0.7783,0.7784,0.7811,0.7817,0.7821,0.7824,0.7764,0,0,0,0,0,0.7961,0.7958,0.793,0.7937,0.7931,0.7906,0.7901,0.7884,0.7869,0.7863,0.7845,0.7831,0.7823,0.7819,0.7811,0.7818,0.7812,0.7824,0.7828,0.7832,0.7834,0.7838,0.7843,0.779,0.779,0.779,0,0,0.7981,0.7963,0.7962,0.7945,0.7932,0.7929,0.7901,0.7898,0.7895,0.7862,0.7861,0.7848,0.783,0.7833,0.7834,0.7823,0.7847,0.7835,0.7838,0.7838,0.784,0.7845,0.785,0.7791,0.7791,0.7791,0,0,0.8014,0.8,0.8005,0.7993,0.7974,0.7957,0.7958,0.7934,0.7924,0.7922,0.7897,0.7893,0.788,0.7869,0.7861,0.789,0.7872,0.7888,0.7912,0.7916,0.792,0.7924,0.7934,0.7939,0.789,0.789,0.789,0,0.804,0.8034,0.8009,0.8008,0.8001,0.7971,0.7975,0.7964,0.7944,0.794,0.7928,0.7912,0.7897,0.7898,0.7905,0.79,0.79,0.7891,0.7921,0.7925,0.7928,0.7938,0.7942,0.7892,0.7892,0.7891,0.7891,0,0.8068,0.8064,0.807,0.8051,0.8044,0.8046,0.8021,0.8017,0.8001,0.7985,0.7983,0.7965,0.7952,0.7951,0.7935,0.7949,0.7943,0.7927,0.7906,0.7935,0.7944,0.7948,0.7895,0.7894,0.7894,0.7893,0,0,0.8126,0.8093,0.8096,0.8087,0.8064,0.8061,0.8061,0.8048,0.8046,0.8033,0.8032,0.8022,0.8007,0.7998,0.798,0.7983,0.8008,0.7966,0.7966,0.7976,0.8023,0.8037,0.8042,0.7995,0.7996,0.7996,0.8025,0,0.8156,0.8155,0.8132,0.8137,0.8134,0.8105,0.8104,0.809,0.8075,0.807,0.8052,0.8046,0.8026,0.8021,0.8022,0.8005,0.8017,0.8002,0.7995,0.7995,0.8001,0.8046,0.806,0.8088,0.8028,0.8029,0.8029,0,0.8192,0.8181,0.8186,0.8163,0.816,0.8161,0.8148,0.8143,0.8126,0.8114,0.8105,0.8085,0.8083,0.8063,0.806,0.805,0.8046,0.8036,0.8037,0.8036,0.8015,0.8047,0.8096,0.8101,0.8034,0.8034,0.8034,0,0.8235,0.8221,0.8222,0.8216,0.8188,0.819,0.8178,0.8161,0.8155,0.8143,0.8139,0.8127,0.8121,0.8112,0.8089,0.8077,0.8089,0.8067,0.808,0.8081,0.8085,0.8086,0.8135,0.8081,0.8081,0.8081,0.8081,0,0.8271,0.8276,0.8241,0.8243,0.8246,0.8219,0.8224,0.821,0.8194,0.8192,0.8165,0.8164,0.8133,0.8128,0.8109,0.811,0.8107,0.8098,0.8094,0.8101,0.8103,0.8099,0.8097,0.8082,0.8081,0.8081,0.8081,0,0.8321,0.8298,0.8298,0.8272,0.8265,0.827,0.8247,0.8247,0.823,0.8227,0.8225,0.8198,0.819,0.8166,0.8153,0.814,0.8147,0.8137,0.8153,0.815,0.8165,0.8164,0.8215,0.822,0.8162,0.8162,0.8163,0,0.8346,0.8349,0.8324,0.832,0.831,0.8305,0.8299,0.8272,0.8267,0.8248,0.825,0.824,0.8231,0.822,0.8199,0.8188,0.8179,0.8197,0.8177,0.8185,0.818,0.8181,0.8181,0.8202,0.8203,0.8203,0.8204,0,0.8394,0.8383,0.8375,0.8364,0.8357,0.8347,0.8335,0.8333,0.8303,0.8298,0.829,0.8283,0.8269,0.826,0.8246,0.8234,0.8214,0.821,0.8213,0.8221,0.8231,0.8227,0.8166,0.821,0.8209,0.8209,0.8208,0.8208,0.8433,0.8434,0.8417,0.8409,0.8397,0.8386,0.8385,0.8368,0.836,0.8347,0.8331,0.8325,0.8308,0.8287,0.8277,0.8271,0.8261,0.8264,0.8265,0.8267,0.8271,0.8231,0.8268,0.8268,0.8268,0.8268,0.8268,0,0.848,0.8467,0.8461,0.8445,0.8439,0.842,0.8406,0.8402,0.8397,0.8383,0.8374,0.8365,0.8356,0.8334,0.8323,0.8323,0.8313,0.8321,0.8321,0.8319,0.8281,0.828,0.8329,0.8329,0.8329,0.8329,0.8329,0.8329,0.8504,0.8506,0.8492,0.8487,0.8474,0.8468,0.8461,0.8451,0.844,0.8431,0.8423,0.8409,0.8391,0.8378,0.8369,0.8363,0.836,0.8371,0.8362,0.8327,0.8321,0.8316,0.8315,0.837,0.8371,0.8401,0.8401,0.8401]}]]